Location: Napier
(39.4830°S, 176.9170°E)
Time: 08:12:38
(UTC+13:00)

ATLAS 3B R/B - Pass Details

Date: 24 January 2019
Orbit: 1028 x 1166 km, 63.8° (Epoch: 07 October)

Event Time Altitude Azimuth Distance (km) Brightness Sun altitude
Exits shadow 22:19:05 24° 62° (ENE) 2,167 3.7 -17.1°
Maximum altitude 22:19:57 24° 72° (ENE) 2,147 3.8 -17.2°
Drops below altitude 10° 22:25:32 10° 123° (ESE) 3,065 5.0 -18.0°
Sets 22:28:50 0° 135° (SE) 4,048 5.8 -18.4°
